This is the latest recevied weather packets stored in our database for station/object KR4KUV. If no packets are shown the sender has not sent any weather packets the latest 10 day(s).
| Time | Temp. | Humidity | Pressure | Rain* | Wind** | Luminosity | Snow |
|---|---|---|---|---|---|---|---|
| 1787832441 | 21.67° C | 99% | 1017.9 hPa | 0 mm | - | 52 W/m² | - |
| 1787832140 | 21.67° C | 99% | 1018 hPa | 0 mm | - | 50 W/m² | - |
| 1787831838 | 21.11° C | 99% | 1017.7 hPa | 0 mm | - | 44 W/m² | - |
| 1787831534 | 21.11° C | 99% | 1017.6 hPa | 0 mm | - | 37 W/m² | - |
| 1787831232 | 21.11° C | 99% | 1017.7 hPa | 0 mm | - | 33 W/m² | - |
| 1787830929 | 21.11° C | 99% | 1017.7 hPa | 0 mm | - | 26 W/m² | - |
| 1787830627 | 20.56° C | 99% | 1017.6 hPa | 0 mm | - | 24 W/m² | - |
| 1787830322 | 20.56° C | 99% | 1017.5 hPa | 0 mm | - | 20 W/m² | - |
| 1787830021 | 20.56° C | 99% | 1017.6 hPa | 0 mm | - | 17 W/m² | - |
| 1787829716 | 20.56° C | 99% | 1017.6 hPa | 0 mm | - | 15 W/m² | - |
| 1787829411 | 20.56° C | 99% | 1017.6 hPa | 0 mm | - | 13 W/m² | - |
| 1787829108 | 20.56° C | 99% | 1017.6 hPa | 0 mm | - | 10 W/m² | - |
| 1787828807 | 20.56° C | 99% | 1017.5 hPa | 0 mm | - | 7 W/m² | - |
| 1787828504 | 20.56° C | 99% | 1017.5 hPa | 0 mm | - | 4 W/m² | - |
| 1787828203 | 20.56° C | 99% | 1017.6 hPa | 0 mm | - | 3 W/m² | - |
| 1787827902 | 20.56° C | 99% | 1017.7 hPa | 0 mm | - | 2 W/m² | - |
| 1787827598 | 20.56° C | 99% | 1017.7 hPa | 0 mm | - | 1 W/m² | - |
| 1787827292 | 20.56° C | 99% | 1017.7 hPa | 0 mm | - | 0 W/m² | - |
| 1787826990 | 20.56° C | 99% | 1017.7 hPa | 0 mm | - | 0 W/m² | - |
| 1787826685 | 20.56° C | 99% | 1017.9 hPa | 0 mm | - | 0 W/m² | - |
| 1787826381 | 20.56° C | 99% | 1017.7 hPa | 0 mm | - | 0 W/m² | - |
| 1787826077 | 21.11° C | 99% | 1017.7 hPa | 0 mm | - | 0 W/m² | - |
| 1787825776 | 21.11° C | 99% | 1017.8 hPa | 0 mm | - | 0 W/m² | - |
| 1787825474 | 21.11° C | 99% | 1017.7 hPa | 0 mm | - | 0 W/m² | - |
| 1787825169 | 21.11° C | 99% | 1017.8 hPa | 0 mm | - | 0 W/m² | - |
* Rain latest hour (hover to see other rain measurements)
** Current wind speed in m/s (hover to see current wind gust speed)